User: anonymous   Login
Location: Unspecified
(0.0000°N, 0.0000°E)
Time: 15:18:31
(UTC+02:00)
Language:

NOAA 12 - Orbit

View from above orbital plane
View from above orbital plane
View from above satellite
View from above satellite

Ground track
Ground track

The orbit data is extracted from the following two-line orbital elements,

1 21263U 91032A   17086.82558336 -.00000003 +00000-0 +16794-4 0  9996
2 21263 098.5713 112.6734 0014286 155.3631 204.8234 14.25837624344879
Epoch (UTC): 27 March 2017 19:48:50
Eccentricity: 0.0014286
inclination: 98.5713°
perigee height: 795 km
apogee height: 816 km
right ascension of ascending node: 112.6734°
argument of perigee: 155.3631°
revolutions per day: 14.25837624
mean anomaly at epoch: 204.8234°
orbit number at epoch: 34487

The dashed part of the orbit path shows where the satellite is in the earth's shadow,  

DLR